Year,Month,Day,Hour,Minute,Value (Times are PST for temperature in C)
2015,06,30,00,00,22.70
2015,06,30,00,01,22.70
2015,06,30,00,02,22.70
2015,06,30,00,03,22.70
2015,06,30,00,04,22.70
2015,06,30,00,05,22.70
2015,06,30,00,06,22.70
2015,06,30,00,07,22.80
2015,06,30,00,08,22.80
2015,06,30,00,09,22.80
2015,06,30,00,10,22.80
2015,06,30,00,11,22.80
2015,06,30,00,12,22.80
2015,06,30,00,13,22.80
2015,06,30,00,14,22.70
2015,06,30,00,15,22.70
2015,06,30,00,16,22.70
2015,06,30,00,17,22.70
2015,06,30,00,18,22.70
2015,06,30,00,19,22.70
2015,06,30,00,20,22.70
2015,06,30,00,21,22.70
2015,06,30,00,22,22.70
2015,06,30,00,23,22.70
2015,06,30,00,24,22.70
2015,06,30,00,25,22.70
2015,06,30,00,26,22.60
2015,06,30,00,27,22.60
2015,06,30,00,28,22.60
2015,06,30,00,29,22.60
2015,06,30,00,30,22.60
2015,06,30,00,31,22.60
2015,06,30,00,32,22.60
2015,06,30,00,33,22.60
2015,06,30,00,34,22.60
2015,06,30,00,35,22.60
2015,06,30,00,36,22.60
2015,06,30,00,37,22.60
2015,06,30,00,38,22.50
2015,06,30,00,39,22.50
2015,06,30,00,40,22.50
2015,06,30,00,41,22.50
2015,06,30,00,42,22.50
2015,06,30,00,43,22.50
2015,06,30,00,44,22.40
2015,06,30,00,45,22.40
2015,06,30,00,46,22.40
2015,06,30,00,47,22.40
2015,06,30,00,48,22.40
2015,06,30,00,49,22.40
2015,06,30,00,50,22.40
2015,06,30,00,51,22.30
2015,06,30,00,52,22.30
2015,06,30,00,53,22.30
2015,06,30,00,54,22.30
2015,06,30,00,55,22.30
2015,06,30,00,56,22.30
2015,06,30,00,57,22.30
2015,06,30,00,58,22.30
2015,06,30,00,59,22.30
2015,06,30,01,00,22.30
2015,06,30,01,01,22.30
2015,06,30,01,02,22.30
2015,06,30,01,03,22.30
2015,06,30,01,04,22.30
2015,06,30,01,05,22.30
2015,06,30,01,06,22.30
2015,06,30,01,07,22.30
2015,06,30,01,08,22.30
2015,06,30,01,09,22.30
2015,06,30,01,10,22.30
2015,06,30,01,11,22.30
2015,06,30,01,12,22.30
2015,06,30,01,13,22.20
2015,06,30,01,14,22.20
2015,06,30,01,15,22.20
2015,06,30,01,16,22.20
2015,06,30,01,17,22.20
2015,06,30,01,18,22.20
2015,06,30,01,19,22.20
2015,06,30,01,20,22.20
2015,06,30,01,21,22.20
2015,06,30,01,22,22.20
2015,06,30,01,23,22.20
2015,06,30,01,24,22.20
2015,06,30,01,25,22.20
2015,06,30,01,26,22.20
2015,06,30,01,27,22.20
2015,06,30,01,28,22.20
2015,06,30,01,29,22.20
2015,06,30,01,30,22.20
2015,06,30,01,31,22.20
2015,06,30,01,32,22.20
2015,06,30,01,33,22.20
2015,06,30,01,34,22.20
2015,06,30,01,35,22.20
2015,06,30,01,36,22.20
2015,06,30,01,37,22.20
2015,06,30,01,38,22.20
2015,06,30,01,39,22.10
2015,06,30,01,40,22.10
2015,06,30,01,41,22.10
2015,06,30,01,42,22.10
2015,06,30,01,43,22.10
2015,06,30,01,44,22.10
2015,06,30,01,45,22.10
2015,06,30,01,46,22.10
2015,06,30,01,47,22.10
2015,06,30,01,48,22.10
2015,06,30,01,49,22.00
2015,06,30,01,50,22.00
2015,06,30,01,51,22.00
2015,06,30,01,52,22.00
2015,06,30,01,53,22.00
2015,06,30,01,54,21.90
2015,06,30,01,55,21.90
2015,06,30,01,56,21.90
2015,06,30,01,57,21.90
2015,06,30,01,58,21.90
2015,06,30,01,59,21.90
2015,06,30,02,00,21.90
2015,06,30,02,01,21.90
2015,06,30,02,02,21.90
2015,06,30,02,03,21.90
2015,06,30,02,04,21.90
2015,06,30,02,05,21.90
2015,06,30,02,06,21.80
2015,06,30,02,07,21.80
2015,06,30,02,08,21.80
2015,06,30,02,09,21.80
2015,06,30,02,10,21.80
2015,06,30,02,11,21.80
2015,06,30,02,12,21.80
2015,06,30,02,13,21.80
2015,06,30,02,14,21.80
2015,06,30,02,15,21.70
2015,06,30,02,16,21.70
2015,06,30,02,17,21.70
2015,06,30,02,18,21.70
2015,06,30,02,19,21.70
2015,06,30,02,20,21.70
2015,06,30,02,21,21.70
2015,06,30,02,22,21.70
2015,06,30,02,23,21.60
2015,06,30,02,24,21.60
2015,06,30,02,25,21.60
2015,06,30,02,26,21.60
2015,06,30,02,27,21.60
2015,06,30,02,28,21.60
2015,06,30,02,29,21.60
2015,06,30,02,30,21.60
2015,06,30,02,31,21.60
2015,06,30,02,32,21.50
2015,06,30,02,33,21.50
2015,06,30,02,34,21.50
2015,06,30,02,35,21.50
2015,06,30,02,36,21.50
2015,06,30,02,37,21.40
2015,06,30,02,38,21.40
2015,06,30,02,39,21.40
2015,06,30,02,40,21.40
2015,06,30,02,41,21.30
2015,06,30,02,42,21.30
2015,06,30,02,43,21.30
2015,06,30,02,44,21.30
2015,06,30,02,45,21.30
2015,06,30,02,46,21.20
2015,06,30,02,47,21.20
2015,06,30,02,48,21.20
2015,06,30,02,49,21.20
2015,06,30,02,50,21.20
2015,06,30,02,51,21.20
2015,06,30,02,52,21.10
2015,06,30,02,53,21.10
2015,06,30,02,54,21.10
2015,06,30,02,55,21.10
2015,06,30,02,56,21.10
2015,06,30,02,57,21.00
2015,06,30,02,58,21.00
2015,06,30,02,59,21.00
2015,06,30,03,00,20.90
2015,06,30,03,01,20.90
2015,06,30,03,02,20.90
2015,06,30,03,03,20.90
2015,06,30,03,04,20.80
2015,06,30,03,05,20.80
2015,06,30,03,06,20.80
2015,06,30,03,07,20.80
2015,06,30,03,08,20.80
2015,06,30,03,09,20.70
2015,06,30,03,10,20.70
2015,06,30,03,11,20.70
2015,06,30,03,12,20.70
2015,06,30,03,13,20.60
2015,06,30,03,14,20.60
2015,06,30,03,15,20.60
2015,06,30,03,16,20.50
2015,06,30,03,17,20.40
2015,06,30,03,18,20.40
2015,06,30,03,19,20.30
2015,06,30,03,20,20.30
2015,06,30,03,21,20.20
2015,06,30,03,22,20.20
2015,06,30,03,23,20.20
2015,06,30,03,24,20.20
2015,06,30,03,25,20.10
2015,06,30,03,26,20.10
2015,06,30,03,27,20.10
2015,06,30,03,28,20.10
2015,06,30,03,29,20.10
2015,06,30,03,30,20.10
2015,06,30,03,31,20.10
2015,06,30,03,32,20.00
2015,06,30,03,33,20.00
2015,06,30,03,34,20.00
2015,06,30,03,35,20.10
2015,06,30,03,36,20.10
2015,06,30,03,37,20.10
2015,06,30,03,38,20.10
2015,06,30,03,39,20.10
2015,06,30,03,40,20.10
2015,06,30,03,41,20.10
2015,06,30,03,42,20.00
2015,06,30,03,43,20.00
2015,06,30,03,44,20.00
2015,06,30,03,45,20.00
2015,06,30,03,46,19.90
2015,06,30,03,47,19.90
2015,06,30,03,48,19.90
2015,06,30,03,49,19.90
2015,06,30,03,50,19.90
2015,06,30,03,51,19.90
2015,06,30,03,52,19.80
2015,06,30,03,53,19.80
2015,06,30,03,54,19.80
2015,06,30,03,55,19.80
2015,06,30,03,56,19.80
2015,06,30,03,57,19.80
2015,06,30,03,58,19.80
2015,06,30,03,59,19.70
2015,06,30,04,00,19.70
2015,06,30,04,01,19.70
2015,06,30,04,02,19.70
2015,06,30,04,03,19.70
2015,06,30,04,04,19.70
2015,06,30,04,05,19.70
2015,06,30,04,06,19.70
2015,06,30,04,07,19.70
2015,06,30,04,08,19.70
2015,06,30,04,09,19.70
2015,06,30,04,10,19.70
2015,06,30,04,11,19.70
2015,06,30,04,12,19.70
2015,06,30,04,13,19.70
2015,06,30,04,14,19.70
2015,06,30,04,15,19.70
2015,06,30,04,16,19.70
2015,06,30,04,17,19.70
2015,06,30,04,18,19.70
2015,06,30,04,19,19.70
2015,06,30,04,20,19.60
2015,06,30,04,21,19.60
2015,06,30,04,22,19.60
2015,06,30,04,23,19.60
2015,06,30,04,24,19.60
2015,06,30,04,25,19.60
2015,06,30,04,26,19.60
2015,06,30,04,27,19.50
2015,06,30,04,28,19.50
2015,06,30,04,29,19.50
2015,06,30,04,30,19.50
2015,06,30,04,31,19.40
2015,06,30,04,32,19.40
2015,06,30,04,33,19.40
2015,06,30,04,34,19.40
2015,06,30,04,35,19.40
2015,06,30,04,36,19.40
2015,06,30,04,37,19.40
2015,06,30,04,38,19.30
2015,06,30,04,39,19.30
2015,06,30,04,40,19.30
2015,06,30,04,41,19.30
2015,06,30,04,42,19.30
2015,06,30,04,43,19.40
2015,06,30,04,44,19.40
2015,06,30,04,45,19.40
2015,06,30,04,46,19.40
2015,06,30,04,47,19.40
2015,06,30,04,48,19.40
2015,06,30,04,49,19.40
2015,06,30,04,50,19.40
2015,06,30,04,51,19.40
2015,06,30,04,52,19.40
2015,06,30,04,53,19.40
2015,06,30,04,54,19.40
2015,06,30,04,55,19.40
2015,06,30,04,56,19.40
2015,06,30,04,57,19.30
2015,06,30,04,58,19.30
2015,06,30,04,59,19.30
2015,06,30,05,00,19.30
2015,06,30,05,01,19.30
2015,06,30,05,02,19.20
2015,06,30,05,03,19.20
2015,06,30,05,04,19.20
2015,06,30,05,05,19.20
2015,06,30,05,06,19.10
2015,06,30,05,07,19.10
2015,06,30,05,08,19.10
2015,06,30,05,09,19.10
2015,06,30,05,10,19.10
2015,06,30,05,11,19.00
2015,06,30,05,12,19.00
2015,06,30,05,13,19.00
2015,06,30,05,14,19.00
2015,06,30,05,15,18.90
2015,06,30,05,16,18.90
2015,06,30,05,17,18.90
2015,06,30,05,18,18.80
2015,06,30,05,19,18.80
2015,06,30,05,20,18.80
2015,06,30,05,21,18.70
2015,06,30,05,22,18.70
2015,06,30,05,23,18.70
2015,06,30,05,24,18.60
2015,06,30,05,25,18.60
2015,06,30,05,26,18.50
2015,06,30,05,27,18.50
2015,06,30,05,28,18.40
2015,06,30,05,29,18.40
2015,06,30,05,30,18.40
2015,06,30,05,31,18.30
2015,06,30,05,32,18.30
2015,06,30,05,33,18.30
2015,06,30,05,34,18.30
2015,06,30,05,35,18.20
2015,06,30,05,36,18.20
2015,06,30,05,37,18.20
2015,06,30,05,38,18.10
2015,06,30,05,39,18.10
2015,06,30,05,40,18.10
2015,06,30,05,41,18.10
2015,06,30,05,42,18.10
2015,06,30,05,43,18.00
2015,06,30,05,44,18.00
2015,06,30,05,45,18.00
2015,06,30,05,46,18.00
2015,06,30,05,47,18.00
2015,06,30,05,48,18.00
2015,06,30,05,49,18.00
2015,06,30,05,50,18.00
2015,06,30,05,51,18.00
2015,06,30,05,52,18.00
2015,06,30,05,53,18.00
2015,06,30,05,54,18.00
2015,06,30,05,55,18.00
2015,06,30,05,56,18.00
2015,06,30,05,57,18.00
2015,06,30,05,58,18.00
2015,06,30,05,59,18.00
2015,06,30,06,00,17.90
2015,06,30,06,01,17.90
2015,06,30,06,02,17.90
2015,06,30,06,03,17.90
2015,06,30,06,04,17.90
2015,06,30,06,05,17.90
2015,06,30,06,06,17.90
2015,06,30,06,07,17.90
2015,06,30,06,08,17.90
2015,06,30,06,09,17.90
2015,06,30,06,10,17.90
2015,06,30,06,11,17.90
2015,06,30,06,12,17.90
2015,06,30,06,13,17.90
2015,06,30,06,14,17.90
2015,06,30,06,15,17.90
2015,06,30,06,16,17.90
2015,06,30,06,17,17.90
2015,06,30,06,18,17.90
2015,06,30,06,19,17.90
2015,06,30,06,20,17.90
2015,06,30,06,21,17.80
2015,06,30,06,22,17.80
2015,06,30,06,23,17.80
2015,06,30,06,24,17.80
2015,06,30,06,25,17.80
2015,06,30,06,26,17.80
2015,06,30,06,27,17.80
2015,06,30,06,28,17.80
2015,06,30,06,29,17.80
2015,06,30,06,30,17.80
2015,06,30,06,31,17.80
2015,06,30,06,32,17.80
2015,06,30,06,33,17.80
2015,06,30,06,34,17.80
2015,06,30,06,35,17.80
2015,06,30,06,36,17.80
2015,06,30,06,37,17.80
2015,06,30,06,38,17.80
2015,06,30,06,39,17.80
2015,06,30,06,40,17.80
2015,06,30,06,41,17.80
2015,06,30,06,42,17.80
2015,06,30,06,43,17.80
2015,06,30,06,44,17.90
2015,06,30,06,45,17.90
2015,06,30,06,46,17.90
2015,06,30,06,47,17.90
2015,06,30,06,48,17.90
2015,06,30,06,49,17.90
2015,06,30,06,50,18.00
2015,06,30,06,51,18.00
2015,06,30,06,52,18.10
2015,06,30,06,53,18.10
2015,06,30,06,54,18.10
2015,06,30,06,55,18.10
2015,06,30,06,56,18.20
2015,06,30,06,57,18.20
2015,06,30,06,58,18.20
2015,06,30,06,59,18.20
2015,06,30,07,00,18.20
2015,06,30,07,01,18.30
2015,06,30,07,02,18.30
2015,06,30,07,03,18.30
2015,06,30,07,04,18.30
2015,06,30,07,05,18.30
2015,06,30,07,06,18.30
2015,06,30,07,07,18.30
2015,06,30,07,08,18.30
2015,06,30,07,09,18.20
2015,06,30,07,10,18.20
2015,06,30,07,11,18.20
2015,06,30,07,12,18.10
2015,06,30,07,13,18.10
2015,06,30,07,14,18.10
2015,06,30,07,15,18.10
2015,06,30,07,16,18.00
2015,06,30,07,17,18.00
2015,06,30,07,18,17.90
2015,06,30,07,19,17.90
2015,06,30,07,20,17.90
2015,06,30,07,21,17.90
2015,06,30,07,22,17.90
2015,06,30,07,23,17.90
2015,06,30,07,24,17.90
2015,06,30,07,25,17.90
2015,06,30,07,26,17.90
2015,06,30,07,27,17.90
2015,06,30,07,28,17.90
2015,06,30,07,29,17.90
2015,06,30,07,30,17.90
2015,06,30,07,31,17.90
2015,06,30,07,32,17.90
2015,06,30,07,33,17.90
2015,06,30,07,34,17.90
2015,06,30,07,35,17.90
2015,06,30,07,36,17.90
2015,06,30,07,37,17.90
2015,06,30,07,38,17.90
2015,06,30,07,39,18.00
2015,06,30,07,40,18.00
2015,06,30,07,41,18.00
2015,06,30,07,42,18.00
2015,06,30,07,43,18.10
2015,06,30,07,44,18.10
2015,06,30,07,45,18.10
2015,06,30,07,46,18.10
2015,06,30,07,47,18.10
2015,06,30,07,48,18.20
2015,06,30,07,49,18.20
2015,06,30,07,50,18.20
2015,06,30,07,51,18.20
2015,06,30,07,52,18.20
2015,06,30,07,53,18.20
2015,06,30,07,54,18.20
2015,06,30,07,55,18.30
2015,06,30,07,56,18.30
2015,06,30,07,57,18.30
2015,06,30,07,58,18.30
2015,06,30,07,59,18.30
2015,06,30,08,00,18.30
2015,06,30,08,01,18.30
2015,06,30,08,02,18.40
2015,06,30,08,03,18.40
2015,06,30,08,04,18.40
2015,06,30,08,05,18.50
2015,06,30,08,06,18.50
2015,06,30,08,07,18.60
2015,06,30,08,08,18.60
2015,06,30,08,09,18.70
2015,06,30,08,10,18.70
2015,06,30,08,11,18.80
2015,06,30,08,12,18.80
2015,06,30,08,13,18.80
2015,06,30,08,14,18.90
2015,06,30,08,15,18.90
2015,06,30,08,16,19.00
2015,06,30,08,17,19.00
2015,06,30,08,18,19.10
2015,06,30,08,19,19.10
2015,06,30,08,20,19.10
2015,06,30,08,21,19.20
2015,06,30,08,22,19.20
2015,06,30,08,23,19.20
2015,06,30,08,24,19.20
2015,06,30,08,25,19.20
2015,06,30,08,26,19.20
2015,06,30,08,27,19.20
2015,06,30,08,28,19.20
2015,06,30,08,29,19.20
2015,06,30,08,30,19.20
2015,06,30,08,31,19.20
2015,06,30,08,32,19.20
2015,06,30,08,33,19.20
2015,06,30,08,34,19.10
2015,06,30,08,35,19.10
2015,06,30,08,36,19.10
2015,06,30,08,37,19.10
2015,06,30,08,38,19.10
2015,06,30,08,39,19.10
2015,06,30,08,40,19.10
2015,06,30,08,41,19.10
2015,06,30,08,42,19.10
2015,06,30,08,43,19.20
2015,06,30,08,44,19.20
2015,06,30,08,45,19.20
2015,06,30,08,46,19.20
2015,06,30,08,47,19.20
2015,06,30,08,48,19.20
2015,06,30,08,49,19.20
2015,06,30,08,50,19.20
2015,06,30,08,51,19.20
2015,06,30,08,52,19.10
2015,06,30,08,53,19.10
2015,06,30,08,54,19.00
2015,06,30,08,55,19.00
2015,06,30,08,56,18.90
2015,06,30,08,57,18.90
2015,06,30,08,58,18.90
2015,06,30,08,59,18.80
2015,06,30,09,00,18.80
2015,06,30,09,01,18.80
2015,06,30,09,02,18.80
2015,06,30,09,03,18.80
2015,06,30,09,04,18.70
2015,06,30,09,05,18.80
2015,06,30,09,06,18.80
2015,06,30,09,07,18.80
2015,06,30,09,08,18.80
2015,06,30,09,09,18.90
2015,06,30,09,10,18.90
2015,06,30,09,11,19.00
2015,06,30,09,12,19.10
2015,06,30,09,13,19.20
2015,06,30,09,14,19.20
2015,06,30,09,15,19.30
2015,06,30,09,16,19.40
2015,06,30,09,17,19.40
2015,06,30,09,18,19.50
2015,06,30,09,19,19.50
2015,06,30,09,20,19.60
2015,06,30,09,21,19.70
2015,06,30,09,22,19.80
2015,06,30,09,23,19.80
2015,06,30,09,24,19.90
2015,06,30,09,25,19.90
2015,06,30,09,26,19.90
2015,06,30,09,27,19.90
2015,06,30,09,28,19.90
2015,06,30,09,29,19.90
2015,06,30,09,30,19.90
2015,06,30,09,31,19.90
2015,06,30,09,32,19.90
2015,06,30,09,33,19.80
2015,06,30,09,34,19.70
2015,06,30,09,35,19.60
2015,06,30,09,36,19.50
2015,06,30,09,37,19.50
2015,06,30,09,38,19.40
2015,06,30,09,39,19.40
2015,06,30,09,40,19.30
2015,06,30,09,41,19.40
2015,06,30,09,42,19.40
2015,06,30,09,43,19.40
2015,06,30,09,44,19.40
2015,06,30,09,45,19.40
2015,06,30,09,46,19.30
2015,06,30,09,47,19.30
2015,06,30,09,48,19.30
2015,06,30,09,49,19.20
2015,06,30,09,50,19.20
2015,06,30,09,51,19.20
2015,06,30,09,52,19.20
2015,06,30,09,53,19.20
2015,06,30,09,54,19.20
2015,06,30,09,55,19.20
2015,06,30,09,56,19.20
2015,06,30,09,57,19.20
2015,06,30,09,58,19.20
2015,06,30,09,59,19.20
2015,06,30,10,00,19.20
2015,06,30,10,01,19.20
2015,06,30,10,02,19.20
2015,06,30,10,03,19.20
2015,06,30,10,04,19.20
2015,06,30,10,05,19.30
2015,06,30,10,06,19.40
2015,06,30,10,07,19.40
2015,06,30,10,08,19.50
2015,06,30,10,09,19.60
2015,06,30,10,10,19.60
2015,06,30,10,11,19.60
2015,06,30,10,12,19.60
2015,06,30,10,13,19.60
2015,06,30,10,14,19.50
2015,06,30,10,15,19.50
2015,06,30,10,16,19.40
2015,06,30,10,17,19.40
2015,06,30,10,18,19.40
2015,06,30,10,19,19.50
2015,06,30,10,20,19.50
2015,06,30,10,21,19.60
2015,06,30,10,22,19.70
2015,06,30,10,23,19.70
2015,06,30,10,24,19.90
2015,06,30,10,25,19.90
2015,06,30,10,26,20.00
2015,06,30,10,27,20.10
2015,06,30,10,28,20.10
2015,06,30,10,29,20.10
2015,06,30,10,30,20.10
2015,06,30,10,31,20.20
2015,06,30,10,32,20.20
2015,06,30,10,33,20.20
2015,06,30,10,34,20.20
2015,06,30,10,35,20.30
2015,06,30,10,36,20.30
2015,06,30,10,37,20.30
2015,06,30,10,38,20.20
2015,06,30,10,39,20.20
2015,06,30,10,40,20.10
2015,06,30,10,41,20.10
2015,06,30,10,42,20.00
2015,06,30,10,43,20.00
2015,06,30,10,44,20.00
2015,06,30,10,45,20.10
2015,06,30,10,46,20.10
2015,06,30,10,47,20.10
2015,06,30,10,48,20.10
2015,06,30,10,49,20.20
2015,06,30,10,50,20.20
2015,06,30,10,51,20.20
2015,06,30,10,52,20.20
2015,06,30,10,53,20.30
2015,06,30,10,54,20.30
2015,06,30,10,55,20.40
2015,06,30,10,56,20.50
2015,06,30,10,57,20.50
2015,06,30,10,58,20.50
2015,06,30,10,59,20.50
2015,06,30,11,00,20.40
2015,06,30,11,01,20.50
2015,06,30,11,02,20.50
2015,06,30,11,03,20.50
2015,06,30,11,04,20.50
2015,06,30,11,05,20.40
2015,06,30,11,06,20.40
2015,06,30,11,07,20.40
2015,06,30,11,08,20.40
2015,06,30,11,09,20.40
2015,06,30,11,10,20.40
2015,06,30,11,11,20.40
2015,06,30,11,12,20.40
2015,06,30,11,13,20.40
2015,06,30,11,14,20.50
2015,06,30,11,15,20.50
2015,06,30,11,16,20.60
2015,06,30,11,17,20.60
2015,06,30,11,18,20.60
2015,06,30,11,19,20.60
2015,06,30,11,20,20.60
2015,06,30,11,21,20.50
2015,06,30,11,22,20.50
2015,06,30,11,23,20.50
2015,06,30,11,24,20.40
2015,06,30,11,25,20.40
2015,06,30,11,26,20.40
2015,06,30,11,27,20.30
2015,06,30,11,28,20.30
2015,06,30,11,29,20.20
2015,06,30,11,30,20.20
2015,06,30,11,31,20.20
2015,06,30,11,32,20.20
2015,06,30,11,33,20.30
2015,06,30,11,34,20.30
2015,06,30,11,35,20.40
2015,06,30,11,36,20.40
2015,06,30,11,37,20.40
2015,06,30,11,38,20.40
2015,06,30,11,39,20.40
2015,06,30,11,40,20.50
2015,06,30,11,41,20.50
2015,06,30,11,42,20.50
2015,06,30,11,43,20.60
2015,06,30,11,44,20.60
2015,06,30,11,45,20.70
2015,06,30,11,46,20.80
2015,06,30,11,47,20.90
2015,06,30,11,48,21.10
2015,06,30,11,49,21.20
2015,06,30,11,50,21.30
2015,06,30,11,51,21.50
2015,06,30,11,52,21.60
2015,06,30,11,53,21.60
2015,06,30,11,54,21.70
2015,06,30,11,55,21.70
2015,06,30,11,56,21.60
2015,06,30,11,57,21.50
2015,06,30,11,58,21.50
2015,06,30,11,59,21.40
2015,06,30,12,00,21.30
2015,06,30,12,01,21.30
2015,06,30,12,02,21.30
2015,06,30,12,03,21.40
2015,06,30,12,04,21.40
2015,06,30,12,05,21.40
2015,06,30,12,06,21.50
2015,06,30,12,07,21.60
2015,06,30,12,08,21.70
2015,06,30,12,09,21.80
2015,06,30,12,10,21.80
2015,06,30,12,11,21.90
2015,06,30,12,12,21.90
2015,06,30,12,13,21.90
2015,06,30,12,14,21.90
2015,06,30,12,15,21.80
2015,06,30,12,16,21.80
2015,06,30,12,17,21.80
2015,06,30,12,18,21.80
2015,06,30,12,19,21.80
2015,06,30,12,20,21.80
2015,06,30,12,21,21.80
2015,06,30,12,22,21.80
2015,06,30,12,23,21.90
2015,06,30,12,24,21.90
2015,06,30,12,25,21.90
2015,06,30,12,26,21.80
2015,06,30,12,27,21.80
2015,06,30,12,28,21.80
2015,06,30,12,29,21.80
2015,06,30,12,30,21.70
2015,06,30,12,31,21.70
2015,06,30,12,32,21.70
2015,06,30,12,33,21.70
2015,06,30,12,34,21.70
2015,06,30,12,35,21.80
2015,06,30,12,36,21.80
2015,06,30,12,37,21.80
2015,06,30,12,38,21.80
2015,06,30,12,39,21.80
2015,06,30,12,40,21.80
2015,06,30,12,41,21.80
2015,06,30,12,42,21.80
2015,06,30,12,43,21.90
2015,06,30,12,44,21.90
2015,06,30,12,45,22.00
2015,06,30,12,46,22.10
2015,06,30,12,47,22.10
2015,06,30,12,48,22.10
2015,06,30,12,49,22.10
2015,06,30,12,50,22.10
2015,06,30,12,51,22.10
2015,06,30,12,52,22.10
2015,06,30,12,53,22.10
2015,06,30,12,54,22.00
2015,06,30,12,55,22.00
2015,06,30,12,56,22.00
2015,06,30,12,57,22.00
2015,06,30,12,58,22.10
2015,06,30,12,59,22.10
2015,06,30,13,00,22.10
2015,06,30,13,01,22.10
2015,06,30,13,02,22.20
2015,06,30,13,03,22.30
2015,06,30,13,04,22.40
2015,06,30,13,05,22.50
2015,06,30,13,06,22.50
2015,06,30,13,07,22.60
2015,06,30,13,08,22.60
2015,06,30,13,09,22.60
2015,06,30,13,10,22.60
2015,06,30,13,11,22.60
2015,06,30,13,12,22.70
2015,06,30,13,13,22.70
2015,06,30,13,14,22.80
2015,06,30,13,15,22.80
2015,06,30,13,16,22.90
2015,06,30,13,17,22.90
2015,06,30,13,18,22.90
2015,06,30,13,19,22.90
2015,06,30,13,20,22.90
2015,06,30,13,21,22.90
2015,06,30,13,22,23.00
2015,06,30,13,23,23.10
2015,06,30,13,24,23.10
2015,06,30,13,25,23.10
2015,06,30,13,26,23.20
2015,06,30,13,27,23.20
2015,06,30,13,28,23.30
2015,06,30,13,29,23.30
2015,06,30,13,30,23.40
2015,06,30,13,31,23.50
2015,06,30,13,32,23.60
2015,06,30,13,33,23.70
2015,06,30,13,34,23.70
2015,06,30,13,35,23.70
2015,06,30,13,36,23.70
2015,06,30,13,37,23.70
2015,06,30,13,38,23.70
2015,06,30,13,39,23.70
2015,06,30,13,40,23.70
2015,06,30,13,41,23.70
2015,06,30,13,42,23.60
2015,06,30,13,43,23.60
2015,06,30,13,44,23.50
2015,06,30,13,45,23.50
2015,06,30,13,46,23.40
2015,06,30,13,47,23.40
2015,06,30,13,48,23.40
2015,06,30,13,49,23.50
2015,06,30,13,50,23.50
2015,06,30,13,51,23.60
2015,06,30,13,52,23.60
2015,06,30,13,53,23.70
2015,06,30,13,54,23.70
2015,06,30,13,55,23.70
2015,06,30,13,56,23.70
2015,06,30,13,57,23.70
2015,06,30,13,58,23.80
2015,06,30,13,59,23.90
2015,06,30,14,00,24.00
2015,06,30,14,01,24.00
2015,06,30,14,02,24.00
2015,06,30,14,03,24.00
2015,06,30,14,04,24.00
2015,06,30,14,05,24.00
2015,06,30,14,06,23.90
2015,06,30,14,07,23.90
2015,06,30,14,08,24.00
2015,06,30,14,09,24.00
2015,06,30,14,10,24.00
2015,06,30,14,11,24.00
2015,06,30,14,12,24.00
2015,06,30,14,13,24.00
2015,06,30,14,14,24.10
2015,06,30,14,15,24.10
2015,06,30,14,16,24.10
2015,06,30,14,17,24.10
2015,06,30,14,18,24.10
2015,06,30,14,19,24.10
2015,06,30,14,20,24.10
2015,06,30,14,21,24.10
2015,06,30,14,22,24.10
2015,06,30,14,23,24.10
2015,06,30,14,24,24.10
2015,06,30,14,25,24.00
2015,06,30,14,26,24.00
2015,06,30,14,27,24.00
2015,06,30,14,28,24.00
2015,06,30,14,29,24.00
2015,06,30,14,30,24.10
2015,06,30,14,31,24.10
2015,06,30,14,32,24.20
2015,06,30,14,33,24.20
2015,06,30,14,34,24.20
2015,06,30,14,35,24.20
2015,06,30,14,36,24.30
2015,06,30,14,37,24.30
2015,06,30,14,38,24.30
2015,06,30,14,39,24.20
2015,06,30,14,40,24.20
2015,06,30,14,41,24.20
2015,06,30,14,42,24.20
2015,06,30,14,43,24.20
2015,06,30,14,44,24.20
2015,06,30,14,45,24.20
2015,06,30,14,46,24.30
2015,06,30,14,47,24.30
2015,06,30,14,48,24.30
2015,06,30,14,49,24.30
2015,06,30,14,50,24.30
2015,06,30,14,51,24.30
2015,06,30,14,52,24.30
2015,06,30,14,53,24.20
2015,06,30,14,54,24.20
2015,06,30,14,55,24.20
2015,06,30,14,56,24.20
2015,06,30,14,57,24.20
2015,06,30,14,58,24.20
2015,06,30,14,59,24.30
2015,06,30,15,00,24.30
2015,06,30,15,01,24.30
2015,06,30,15,02,24.40
2015,06,30,15,03,24.40
2015,06,30,15,04,24.40
2015,06,30,15,05,24.30
2015,06,30,15,06,24.30
2015,06,30,15,07,24.30
2015,06,30,15,08,24.30
2015,06,30,15,09,24.30
2015,06,30,15,10,24.30
2015,06,30,15,11,24.30
2015,06,30,15,12,24.30
2015,06,30,15,13,24.40
2015,06,30,15,14,24.50
2015,06,30,15,15,24.60
2015,06,30,15,16,24.70
2015,06,30,15,17,24.80
2015,06,30,15,18,24.90
2015,06,30,15,19,24.90
2015,06,30,15,20,24.90
2015,06,30,15,21,25.00
2015,06,30,15,22,25.00
2015,06,30,15,23,25.00
2015,06,30,15,24,24.90
2015,06,30,15,25,24.90
2015,06,30,15,26,24.80
2015,06,30,15,27,24.80
2015,06,30,15,28,24.70
2015,06,30,15,29,24.70
2015,06,30,15,30,24.70
2015,06,30,15,31,24.70
2015,06,30,15,32,24.70
2015,06,30,15,33,24.70
2015,06,30,15,34,24.70
2015,06,30,15,35,24.70
2015,06,30,15,36,24.70
2015,06,30,15,37,24.70
2015,06,30,15,38,24.70
2015,06,30,15,39,24.70
2015,06,30,15,40,24.70
2015,06,30,15,41,24.70
2015,06,30,15,42,24.70
2015,06,30,15,43,24.70
2015,06,30,15,44,24.80
2015,06,30,15,45,24.80
2015,06,30,15,46,24.90
2015,06,30,15,47,24.90
2015,06,30,15,48,25.00
2015,06,30,15,49,25.00
2015,06,30,15,50,25.10
2015,06,30,15,51,25.10
2015,06,30,15,52,25.10
2015,06,30,15,53,25.10
2015,06,30,15,54,25.00
2015,06,30,15,55,25.00
2015,06,30,15,56,24.90
2015,06,30,15,57,24.90
2015,06,30,15,58,24.90
2015,06,30,15,59,24.90
2015,06,30,16,00,24.90
2015,06,30,16,01,24.90
2015,06,30,16,02,24.90
2015,06,30,16,03,24.90
2015,06,30,16,04,25.00
2015,06,30,16,05,25.00
2015,06,30,16,06,25.10
2015,06,30,16,07,25.10
2015,06,30,16,08,25.20
2015,06,30,16,09,25.20
2015,06,30,16,10,25.20
2015,06,30,16,11,25.30
2015,06,30,16,12,25.30
2015,06,30,16,13,25.30
2015,06,30,16,14,25.30
2015,06,30,16,15,25.40
2015,06,30,16,16,25.50
2015,06,30,16,17,25.50
2015,06,30,16,18,25.60
2015,06,30,16,19,25.70
2015,06,30,16,20,25.80
2015,06,30,16,21,25.80
2015,06,30,16,22,25.90
2015,06,30,16,23,25.90
2015,06,30,16,24,25.90
2015,06,30,16,25,25.90
2015,06,30,16,26,25.80
2015,06,30,16,27,25.80
2015,06,30,16,28,25.70
2015,06,30,16,29,25.60
2015,06,30,16,30,25.60
2015,06,30,16,31,25.60
2015,06,30,16,32,25.60
2015,06,30,16,33,25.60
2015,06,30,16,34,25.60
2015,06,30,16,35,25.70
2015,06,30,16,36,25.60
2015,06,30,16,37,25.60
2015,06,30,16,38,25.60
2015,06,30,16,39,25.60
2015,06,30,16,40,25.50
2015,06,30,16,41,25.50
2015,06,30,16,42,25.50
2015,06,30,16,43,25.60
2015,06,30,16,44,25.60
2015,06,30,16,45,25.50
2015,06,30,16,46,25.50
2015,06,30,16,47,25.30
2015,06,30,16,48,25.20
2015,06,30,16,49,25.20
2015,06,30,16,50,25.20
2015,06,30,16,51,25.20
2015,06,30,16,52,25.20
2015,06,30,16,53,25.30
2015,06,30,16,54,25.30
2015,06,30,16,55,25.40
2015,06,30,16,56,25.50
2015,06,30,16,57,25.60
2015,06,30,16,58,25.50
2015,06,30,16,59,25.50
2015,06,30,17,00,25.40
2015,06,30,17,01,25.40
2015,06,30,17,02,25.30
2015,06,30,17,03,25.40
2015,06,30,17,04,25.40
2015,06,30,17,05,25.40
2015,06,30,17,06,25.40
2015,06,30,17,07,25.40
2015,06,30,17,08,25.50
2015,06,30,17,09,25.60
2015,06,30,17,10,25.70
2015,06,30,17,11,25.80
2015,06,30,17,12,25.90
2015,06,30,17,13,26.00
2015,06,30,17,14,26.10
2015,06,30,17,15,26.20
2015,06,30,17,16,26.20
2015,06,30,17,17,26.30
2015,06,30,17,18,26.30
2015,06,30,17,19,26.30